Погода в Норске

Погода в Норске : погода сейчас, прогноз погоды и архив. Всё, что Вы хотите узнать о погоде в Норске!

Хотите узнать прогноз погоды в Норске? Тогда Вам сюда: Погода в Норске

Поиск расширенной информации на нашем сайте:

Другие новости

Новости СМИ2

Главная страница сайта

Новости сайта

02.10.2013

Напоминаем, что на нашем новом сайте вы можете получить высокодетализированные прогнозы погоды по пунктам России, СНГ и мира (включающие важные для авиации метеовеличины, такие как направление и скорость ветра, видимость, явления погоды, количество и форма облачности, нижняя и верхняя граница облачности), а также ознакомиться с разнообразными материалами по авиационной метеорологии и подборкой полезных ссылок на эту тему.

Сайт Метеоцентр.Азия посвящён разработке технологий оптимизации авиаметеорологического обслуживания, включая проектирование и перспективное создание нескольких автоматизированных авиаметеорологических систем:
- система выпуска высокодетальных прогностических карт явлений погоды для нижнего воздушного пространства по России и ближнему зарубежью;
- система верификации прогнозов TAF (выпускаемых синоптиками официальных АМСГ РФ и ближнего зарубежья) и AUTOTAF (выпускаемых сайтом Метеоцентр.Азия) - выявление ошибок, онлайн-сопоставление с фактической погодой METAR, автоматическое внесение коррективов в прогнозы при резком отклонении фактической погоды от прогноза, подсчёт оправдываемости прогнозов по элементам и в целом;
- система обработки, анализа и отображения авиаметеорологической информации для применения провайдерами метеорологической информации.


Погода в Норске - сегодня

Время (UTC), дата Ветер
(°,м/с) 
Видим.   Явления Облачность Т
(°С)
Тd
(°С)
f(%) Тe
(°С)
Pmin
(гПа)
dP
(гПа)
Po
(мм)
O2
(г/м3)
Тmin Tmax R s Состояние
почвы
03 20.05.17 310 (СЗ) 4{11}  20000 м    3/3 1000 м 
[Cu hum]
+13.7 -6.5 24 +13  1014.8  -0.5  743  286           
06 20.05.17 270 (З) 3{11}  20000 м    8/0 кучево-дожд. 
[Cb cap]
+14.2 -9.1 19 +14  1013.4  -0.3  742  285           
09 20.05.17 290 (З) 4{11}  20000 м    6/6 1000 м 
[Cu med, cong]
+12.8 -7.9 23 +12  1013  -0.6  741  286           
12 20.05.17 330 (СЗ) 4{11}  20000 м    4/3 1000 м средняя 
[Sc|Ac trans]
+8 -2.9 46 +7  1016.2  2.9  743  291    +15       
15 20.05.17 тихо ()   20000 м    3/0 верхняя 
[Ci fib]
-0.5 -2.4 87 -1  1018.9  1.7  745  301           
18 20.05.17 260 (З) 20000 м    ясно 
-2.9 -3.7 94 -2  1019.4  0.3  745  304           
21 20.05.17 280 (З) 20000 м    3/0 средняя 
[Ac trans]
+1.7 -4.7 62 +2  1020.2  1.2  746  299           
00 21.05.17 310 (СЗ) 20000 м    ясно 
+8.7 -9.8 26 +8  1019.8  0.4  746  292  -3.7        влажная 
03 21.05.17 290 (З) 5{10}  20000 м    6/6 1000 м 
[Cu med, cong]
+11.4 -10.2 21 +10  1018.9  -0.8  745  289           
06 21.05.17 290 (З) 6-11{11}  20000 м    6/6 1000 м 
[Cu med, cong]
+13.3 -9.9 19 +12  1016.2  -2.4  744  287           
09 21.05.17 290 (З) 4{11}  20000 м    4/4 1000 м 
[Cu hum]
+13.9 -10.8 17 +14  1015.2  -1  743  286           
12 21.05.17 тихо ()   20000 м    3/3 1000 м 
[Sc]
+4.2 -2.4 62 +4  1016.5  0.5  743  295    +14.2       
15 21.05.17 тихо ()   20000 м    ясно 
-1.3 -3.2 87 -1  1017.5  0.4  744  301           
18 21.05.17 тихо ()   20000 м    ясно 
-3.3 -4 95 -3  1017.2  -0.5  743  304           
21 21.05.17 тихо ()   20000 м    ясно 
+2.2 -1.8 75 +2  1015.9  -0.7  743  297           
00 22.05.17 200 (Ю) 20000 м    ясно 
+14.3 -4.5 27 +15  1013.5  -1.3  742  284  -3.6        влажная 
03 22.05.17 240 (ЮЗ) 20000 м    ясно 
+21 -5.8 16 +21  1010.8  -2  740  277           
06 22.05.17 210 (ЮЗ) 3{11}  20000 м    3/3 1000 м 
[Cu hum]
+22.5 -4.6 16 +23  1008.7  -2  739  275           
09 22.05.17 200 (Ю) 2{10}  20000 м    ясно 
+21.8 -6 15 +22  1006.7  -2.1  737  276           
12 22.05.17 160 (Ю) 20000 м    ясно 
+13 -2.9 33 +14  1007.5  0.1  737  284    +23       
15 22.05.17 200 (Ю) 20000 м    ясно 
+11.9 -4.7 31 +13  1006.8  -0.7  737  285           
18 22.05.17 140 (ЮВ) 20000 м    ясно 
+5.6 -2.9 54 +6  1006.9  -0.5  736  291           
21 22.05.17 180 (Ю) 20000 м    ясно 
+9.4 -3.2 41 +10  1005.8  -0.7  736  287           
00 23.05.17 220 (ЮЗ) 20000 м    8/3 600 м кучево-дожд., верхняя 
[Cb cap|Ci ing]
+13.8 -0.3 38 +14  1005  -0.5  735  282  +3.9        влажная 
03 23.05.17 290 (З) 3{10}  20000 м    10/6 600 м кучево-дожд., средняя, верхняя 
[Cb cap|Ac lent|Ci ing]
+12.4 -3.9 32 +12  1005.9  0.9  736  284           
Время (UTC), дата Ветер
(°,м/с) 
Видим.   Явления Облачность Т
(°С)
Тd
(°С)
f(%) Тe
(°С)
Pmin
(гПа)
dP
(гПа)
Po
(мм)
O2
(г/м3)
Тmin Tmax R s Состояние
почвы

Для получения пояснительной информации подведите курсор к названию столбца.

ПОГОДА в Норске - архив

Всё, что Вы хотите узнать о погоде в Норске - удобно и подробно!

Выберите нужную дату (начиная с 1 января 2015* года) и нажмите кнопку "Найти".
Будут отображены архивные сводки погоды по пункту Норск, начиная с указанной даты.


Отображать данные в формате CSV (для использования в таблицах Excel)


Внимание! Наш архив погоды предназначен исключительно для личного некоммерческого использования в познавательных целях. Если Вам необходимы официальные справки о состоянии погоды (для производственных, юридических, коммерческих и т.п. целей), обращайтесь в органы Росгидромета.

*Примечание: данная дата относится к архиву по метеостанциям СССР (Россия, СНГ, Балтия).
Архив по метеостанциям Зарубежной Европы и Азии (кроме Китая) хранится 10 дней, по другим регионам земного шара (Китай, Африка, Америка, Австралия, Океания) - 1 день.

Норск - район местоположения метеостанции


Название, широта, долгота, высота метеостанции:
Норск 52.3°ш. 129.9°д. 208 м над ур. моря [Российская Федерация]

Дополнительная информация

В oтличие oт бoльшинства пoгoдных сайтoв мы публикуем пoдрoбную метеoинфoрмацию в детальнoм прoфессиoнальнoм фoрмате.

Характеристики температуры и влажнoсти вoздуха измеряются на высoте 2 м в тени вдали oт зданий и деревьев.
Скoрoсть ветра измеряется на высoте 10 м (на урoвне рoста челoвека скoрoсть ветра ниже в 1.5-2 раза). Если метеoстанция нахoдится в гoрoде или в лесу, тo скoрoсть ветра занижена на 2-4 м/с пo сравнению с oткрытым местoм. Скoрoсть ветра над акватoриями крупных рек и oзёр, а также на вершинах хoлмoв на 2-5 м/с выше, чем в oбычных услoвиях.
Атмoсфернoе давление в разных тoчках местнoсти мoжет значительнo oтличаться oт давления на метеoстанции, в зависимoсти oт услoвий рельефа (при пoдъёме на 10 м давление пoнижается примернo на 1 мм рт.ст.).